Location: Bern�tre
(50.1974°N, 2.0915°E)
Time: 04:50:35
(UTC+00:00)

CENTAUR R/B - Pass Details

Date: 18 September 2020
Orbit: 753 x 1435 km, 63.5° (Epoch: 26 October)

Event Time Altitude Azimuth Distance (km) Brightness Sun altitude
Rises 21:13:01 0° 315° (NW) 4,153 7.0 -29.0°
Reaches altitude 10° 21:15:46 10° 310° (NW) 3,269 6.2 -29.3°
Maximum altitude 21:23:24 48° 240° (WSW) 1,750 3.8 -30.1°
Enters shadow 21:25:43 40° 202° (SSW) 1,970 3.8 -30.4°
